User: anonymous   Login
Location: Unspecified
(0.0000°N, 0.0000°E)
Time: 05:35:08
(UTC+00:00)
Language:

GOSAT - Orbit

View from above orbital plane
View from above orbital plane
View from above satellite
View from above satellite

Ground track
Ground track

The orbit data is extracted from the following two-line orbital elements,

1 33492U 09002A   14303.74734905 -.00000073  00000-0 -44987-5 0   633
2 33492 098.0606 051.1119 0001653 076.6457 283.4932 14.67550975308966
Epoch (UTC): 30 October 2014 17:56:10
Eccentricity: 0.0001653
inclination: 98.0606°
perigee height: 668 km
apogee height: 670 km
right ascension of ascending node: 51.1119°
argument of perigee: 76.6457°
revolutions per day: 14.67550975
mean anomaly at epoch: 283.4932°
orbit number at epoch: 30896

The dashed part of the orbit path shows where the satellite is in the earth's shadow,  

DLR